TimeEDT,TemperatureF,Dew PointF,Humidity,Sea Level PressureIn,VisibilityMPH,Wind Direction,Wind SpeedMPH,Gust SpeedMPH,PrecipitationIn,Events,Conditions,WindDirDegrees,DateUTC
12:53 AM,46.9,44.1,90,29.97,10.0,SSE,17.3,27.6,N/A,,Overcast,160,2013-03-12 04:53:00
1:53 AM,46.9,45.0,93,29.96,6.0,South,18.4,29.9,0.02,Rain,Rain,170,2013-03-12 05:53:00
2:34 AM,46.4,44.6,93,29.91,-9999.0,South,16.1,26.5,0.05,Rain,Light Rain,170,2013-03-12 06:34:00
2:53 AM,46.9,45.0,93,29.93,-9999.0,South,19.6,26.5,0.07,Rain,Light Rain,170,2013-03-12 06:53:00
3:53 AM,46.9,45.0,93,29.91,-9999.0,South,11.5,28.8,0.07,Rain,Light Rain,170,2013-03-12 07:53:00
4:10 AM,46.4,44.6,93,29.88,-9999.0,South,16.1,24.2,0.01,Rain,Light Rain,170,2013-03-12 08:10:00
4:53 AM,46.9,45.0,93,29.89,-9999.0,South,15.0,27.6,0.06,Rain,Light Rain,170,2013-03-12 08:53:00
5:53 AM,48.0,46.0,93,29.87,4.0,South,13.8,19.6,0.08,Rain,Rain,170,2013-03-12 09:53:00
6:22 AM,48.2,46.4,93,29.85,7.0,South,11.5,20.7,0.05,Rain,Light Rain,180,2013-03-12 10:22:00
6:33 AM,48.2,46.4,93,29.85,3.0,South,15.0,26.5,0.08,Rain,Rain,180,2013-03-12 10:33:00
6:53 AM,48.0,46.9,96,29.87,3.0,South,12.7,-,0.14,Rain,Rain,170,2013-03-12 10:53:00
7:04 AM,48.2,46.4,93,29.84,4.0,South,16.1,24.2,0.03,Rain,Rain,170,2013-03-12 11:04:00
7:53 AM,48.0,46.9,96,29.84,-9999.0,SSE,10.4,-,0.17,Rain,Heavy Rain,160,2013-03-12 11:53:00
8:15 AM,48.2,46.4,93,29.83,-9999.0,SSE,11.5,-,0.05,Rain,Rain,160,2013-03-12 12:15:00
8:45 AM,48.2,46.4,93,29.82,2.0,South,10.4,-,0.12,Rain,Rain,170,2013-03-12 12:45:00
8:49 AM,48.2,46.4,93,29.82,3.0,SSE,11.5,-,0.12,Rain,Light Rain,160,2013-03-12 12:49:00
8:53 AM,48.9,48.0,97,29.83,4.0,South,12.7,19.6,0.13,Rain,Light Rain,170,2013-03-12 12:53:00
9:01 AM,48.2,48.2,100,29.82,2.5,South,10.4,24.2,0.02,Rain,Light Rain,180,2013-03-12 13:01:00
9:25 AM,50.0,48.2,94,29.81,3.0,South,18.4,24.2,0.07,Rain,Rain,170,2013-03-12 13:25:00
9:48 AM,50.0,48.2,94,29.81,2.5,South,11.5,21.9,0.13,Rain,Rain,170,2013-03-12 13:48:00
9:53 AM,50.0,48.0,93,29.82,2.5,South,13.8,20.7,0.15,Rain,Rain,180,2013-03-12 13:53:00
10:28 AM,50.0,48.2,94,29.80,2.0,SSE,11.5,20.7,0.14,Rain,Rain,160,2013-03-12 14:28:00
10:39 AM,50.0,48.2,94,29.79,1.8,SSE,16.1,27.6,0.19,Rain,Rain,160,2013-03-12 14:39:00
10:53 AM,50.0,48.0,93,29.80,2.0,SSE,13.8,21.9,0.27,Rain,Rain,150,2013-03-12 14:53:00
11:08 AM,50.0,48.2,94,29.78,1.5,SSE,13.8,20.7,0.08,Rain,Rain,160,2013-03-12 15:08:00
11:13 AM,50.0,48.2,94,29.77,2.0,SSE,13.8,20.7,0.10,Rain,Rain,150,2013-03-12 15:13:00
11:20 AM,50.0,48.2,94,29.76,1.8,SSE,11.5,-,0.14,Rain,Rain,150,2013-03-12 15:20:00
11:53 AM,50.0,48.0,93,29.77,1.5,SSE,17.3,26.5,0.37,Rain,Heavy Rain,160,2013-03-12 15:53:00
12:05 PM,50.0,48.2,94,29.74,2.0,SSE,16.1,23.0,0.04,Rain,Rain,150,2013-03-12 16:05:00
12:17 PM,51.8,48.2,88,29.74,1.8,SSE,17.3,24.2,0.11,Rain,Heavy Rain,160,2013-03-12 16:17:00
12:24 PM,50.0,48.2,94,29.74,1.5,SE,13.8,24.2,0.16,Rain,Heavy Rain,140,2013-03-12 16:24:00
12:41 PM,50.0,48.2,94,29.73,2.0,SSE,16.1,-,0.26,Rain,Rain,150,2013-03-12 16:41:00
12:53 PM,50.0,48.0,93,29.73,2.0,SSE,13.8,-,0.30,Rain,Rain,150,2013-03-12 16:53:00
12:59 PM,50.0,48.2,94,29.72,1.8,SSE,13.8,21.9,0.03,Rain,Rain,150,2013-03-12 16:59:00
1:02 PM,50.0,48.2,94,29.72,2.0,SE,13.8,21.9,0.04,Rain,Rain,140,2013-03-12 17:02:00
1:10 PM,50.0,48.2,94,29.71,3.0,South,10.4,19.6,0.05,Rain,Rain,170,2013-03-12 17:10:00
1:18 PM,50.0,48.2,94,29.72,1.8,SW,5.8,-,0.10,Rain,Heavy Rain,230,2013-03-12 17:18:00
1:30 PM,50.0,48.2,94,29.72,2.0,South,6.9,-,0.17,Rain,Rain,190,2013-03-12 17:30:00
1:38 PM,50.0,48.2,94,29.72,2.5,South,4.6,-,0.20,Rain,Rain,190,2013-03-12 17:38:00
1:45 PM,50.0,48.2,94,29.71,6.0,South,4.6,-,0.20,Rain,Light Rain,170,2013-03-12 17:45:00
1:53 PM,50.0,48.9,96,29.72,10.0,SSW,8.1,-,0.20,Rain,Light Rain,200,2013-03-12 17:53:00
2:19 PM,51.8,48.2,88,29.70,7.0,SW,9.2,-,0.01,Rain,Light Rain,220,2013-03-12 18:19:00
2:53 PM,48.9,46.0,90,29.69,10.0,West,9.2,-,0.03,Rain,Light Rain,280,2013-03-12 18:53:00
3:06 PM,48.2,46.4,93,29.69,10.0,WNW,13.8,19.6,0.00,Rain,Light Rain,290,2013-03-12 19:06:00
3:16 PM,48.2,46.4,93,29.69,8.0,WNW,10.4,20.7,0.00,,Overcast,300,2013-03-12 19:16:00
3:53 PM,46.0,43.0,89,29.72,2.5,NW,13.8,19.6,0.00,Rain,Light Rain,310,2013-03-12 19:53:00
4:08 PM,44.6,42.8,93,29.70,4.0,WNW,13.8,-,0.00,,Overcast,300,2013-03-12 20:08:00
4:42 PM,44.6,41.0,87,29.70,5.0,NW,13.8,21.9,0.00,,Overcast,310,2013-03-12 20:42:00
4:53 PM,43.0,41.0,93,29.73,3.0,NW,15.0,23.0,0.00,,Overcast,310,2013-03-12 20:53:00
5:38 PM,42.8,39.2,87,29.73,2.5,NW,13.8,25.3,0.00,Rain,Light Rain,320,2013-03-12 21:38:00
5:45 PM,42.8,39.2,87,29.73,5.0,NW,11.5,23.0,0.00,Rain,Light Rain,320,2013-03-12 21:45:00
5:53 PM,41.0,37.9,89,29.75,7.0,NW,15.0,20.7,0.00,,Overcast,320,2013-03-12 21:53:00
6:05 PM,41.0,37.4,87,29.74,10.0,NW,13.8,21.9,N/A,,Overcast,310,2013-03-12 22:05:00
6:22 PM,39.2,37.4,93,29.75,5.0,NW,12.7,18.4,N/A,,Overcast,320,2013-03-12 22:22:00
6:48 PM,39.2,37.4,93,29.76,2.0,NNW,9.2,-,N/A,,Overcast,330,2013-03-12 22:48:00
6:53 PM,39.0,37.0,93,29.78,2.5,NW,11.5,17.3,N/A,,Overcast,320,2013-03-12 22:53:00
7:01 PM,39.2,35.6,87,29.76,6.0,NNW,13.8,21.9,N/A,,Overcast,330,2013-03-12 23:01:00
7:12 PM,39.2,35.6,87,29.76,10.0,NNW,13.8,19.6,N/A,,Overcast,330,2013-03-12 23:12:00
7:35 PM,39.2,35.6,87,29.78,8.0,NW,13.8,18.4,N/A,,Overcast,320,2013-03-12 23:35:00
7:53 PM,37.9,35.1,89,29.82,7.0,NW,10.4,18.4,N/A,,Overcast,320,2013-03-12 23:53:00
8:38 PM,37.4,35.6,93,29.80,10.0,NW,12.7,-,N/A,,Overcast,310,2013-03-13 00:38:00
8:53 PM,37.9,35.1,89,29.83,9.0,NW,11.5,-,N/A,,Overcast,320,2013-03-13 00:53:00
9:25 PM,37.4,33.8,87,29.80,10.0,NW,11.5,-,N/A,,Overcast,310,2013-03-13 01:25:00
9:53 PM,37.9,34.0,86,29.83,10.0,NW,9.2,-,N/A,,Overcast,320,2013-03-13 01:53:00
10:53 PM,36.0,33.1,89,29.85,10.0,NNW,6.9,-,N/A,,Scattered Clouds,330,2013-03-13 02:53:00
11:45 PM,35.6,33.8,93,29.82,10.0,NW,4.6,-,N/A,,Overcast,310,2013-03-13 03:45:00
11:53 PM,36.0,32.0,86,29.85,10.0,NW,5.8,-,N/A,,Overcast,310,2013-03-13 03:53:00